Regional Weather Roundup
Issued by NWS Sterling, VA

Home | Current Version | Previous Version | Graphics & Text | Print | Product List | Glossary On
Versions: 1 2 3 4 5 6 7 8 9 10 11 12 13 14 15 16 17 18 19 20 21 22 23 24 25 26 27 28 29 30 31 32 33 34 35 36 37 38 39 40 41 42 43 44 45 46 47 48 49 50
000
ASUS41 KLWX 262211
RWRLWX

REGIONAL WEATHER ROUNDUP
NATIONAL WEATHER SERVICE BALTIMORE MD/WASHINGTON DC
600 PM EDT FRI AUG 26 2016

Note: "FAIR" indicates few or no clouds below 12,000 feet
with no significant weather and/or obstructions to visibility.
 TC=TEMPERATURE CELSIUS

 * =Non NWS site. Station does not report precipitation (e.g. rain,
    snow, etc.), thunder, or fog.

DCZ001-MDZ009-015-VAZ040>042-051-053>054-262300-
WASHINGTON METRO

CITY           SKY/WX    TMP DP  RH WIND       PRES   REMARKS
WASHINGTON NAT MOSUNNY   94  69  44 N12       30.03S HX  99
DULLES         MOSUNNY   92  68  45 N6        30.04S HX  96
ANDREWS AFB    SUNNY     91  68  48 N7        30.03S HX  94
FT BELVOIR     SUNNY     93  70  45 NW5       30.02S HX  99
QUANTICO       MOSUNNY   93  72  50 CALM      30.03S HX 101
COLLEGE PARK*  SUNNY     90  70  51 NW6       30.03S HX  95
LEESBURG*      SUNNY     93  72  49 NW5       30.05S HX 100
MANASSAS*      SUNNY     91  72  52 CALM      30.03S HX  98
GAITHERSBURG*  SUNNY     88  70  55 CALM      30.09R HX  92

$$

MDZ006>007-011-014-262300-
BALTIMORE METRO

CITY           SKY/WX    TMP DP  RH WIND       PRES   REMARKS
BWI AIRPORT    MOSUNNY   91  69  48 NW6       30.02S HX  96
MARTIN STATE   MOSUNNY   91  72  52 N7        30.03S HX  98
ANNAPOLIS      SUNNY     90  71  53 NE7       30.02S HX  96
FORT MEADE*    SUNNY    N/A N/A N/A W5        30.05S

$$

MDZ012-015-019>023-262300-
MARYLAND EASTERN SHORE

CITY           SKY/WX    TMP DP  RH WIND       PRES   REMARKS
OCEAN CITY     SUNNY     86  74  67 E5        30.02S HX  94
SALISBURY      MOSUNNY   91  72  53 N9        30.01S HX  98
BAY BRIDGE AP* MOSUNNY   90  72  55 NE5       30.02S HX  96
CAMBRIDGE*     SUNNY     90  70  51 NW3       30.02S HX  95
EASTON*        SUNNY     91  75  59 N3        30.06S HX 102

$$

MDZ017>025-262300-
SOUTHERN MARYLAND

CITY           SKY/WX    TMP DP  RH WIND       PRES   REMARKS
PATUXENT RIVER MOSUNNY   90  72  55 E3        30.02S HX  97
ST INIGOES     SUNNY     92  75  57 MISG      30.02S HX 103
LEONARDTOWN*   SUNNY     90  68  48 CALM      30.04S HX  93

$$

MDZ003>005-262300-
NORTH CENTRAL MARYLAND

CITY           SKY/WX    TMP DP  RH WIND       PRES   REMARKS
FREDERICK*     MOSUNNY   90  75  62 CALM      30.07S HX 100
HAGERSTOWN APT PTSUNNY   93  64  38 N12       30.06R HX  94

$$

MDZ501>502-262300-
WESTERN MARYLAND

CITY           SKY/WX    TMP DP  RH WIND       PRES   REMARKS
OAKLAND*       PTSUNNY   73  64  73 NW3       30.24R
CUMBERLAND*    SUNNY     91  64  40 N8        30.11S HX  93

$$

VAZ025>031-262300-
SHENANDOAH VALLEY

CITY           SKY/WX    TMP DP  RH WIND       PRES   REMARKS
WINCHESTER*    PTSUNNY   90  68  48 N3        30.07R HX  93
FRONT ROYAL*   CLOUDY    88  77  70 CALM      30.06R HX 100
LURAY*         FAIR      90  68  48 NW3       30.06S HX  93
NEW MARKET*    FAIR     N/A N/A N/A CALM      30.05S
STAUNTON*      MOSUNNY   91  73  54 SW9       30.10S HX  98
WAYNESBORO*    FAIR      84  73  69 CALM      30.12R HX  90

$$

WVZ021-048>050-054>055-262300-
EASTERN WEST VIRGINIA PANHANDLE

CITY           SKY/WX    TMP DP  RH WIND       PRES   REMARKS
MARTINSBURG    SUNNY     92  66  42 NW7       30.05R HX  94
PETERSBURG*    SUNNY     92  69  45 W6        30.08F HX  97

$$

VAZ036>039-050-262300-
CENTRAL FOOTHILLS

CITY           SKY/WX    TMP DP  RH WIND       PRES   REMARKS
CHARLOTTESVILL MOSUNNY   92  73  53 SW3       30.05S HX 100
CULPEPER*      MOSUNNY   93  74  53 N3        30.04S HX 103
ORANGE*          N/A     93  72  49 CALM      30.06S HX 100
GORDONSVILLE*  NOT AVBL
WARRENTON*     FAIR      95  68  41 CALM      30.04S HX  99

$$

VAZ055>057-262300-
NORTH AND CENTRAL PIEDMONT

CITY           SKY/WX    TMP DP  RH WIND       PRES   REMARKS
FREDERICKSBRG*   N/A     93  73  52 SE3       30.02S HX 102
STAFFORD*      SUNNY     93  69  45 CALM      30.07S HX  98

$$

NCZ024-NYZ072-PAZ021-071-VAZ022-071-262300-
OTHER REGIONAL OBSERVATIONS

CITY           SKY/WX    TMP DP  RH WIND       PRES   REMARKS
NEW YORK CITY    N/A     88  63  42 MISG        N/A
PHILADELPHIA   MOSUNNY   92  64  39 NW15      30.01S HX  93
PITTSBURGH     MOSUNNY   86  59  39 NW8       30.12S
ROANOKE        MOSUNNY   90  69  50 SE6       30.10F HX  94
RICHMOND       MOSUNNY   95  70  44 N6        30.03S HX 101
RALEIGH        MOSUNNY   95  69  42 E6        30.03F HX 100

$$

ANZ530>537-262300-
MARINE OBSERVATIONS

STATION/POSITION TIME  TEMP    WIND        PRES
                       AIR SEA DIR/SP/G
                 (UTC) (F)     (DEG/KT/KT) (MB)
THOMAS PT LIGHT  2200   88 83   50/  5/  5 1018.0S
BALT KEY BRIDGE  2142   86     130/  6/  8 1016.5F
COVE POINT       2142   87      40/  5/  6 1017.2S
LEWISETTA        2142   91 83  350/  4/  6 1016.3S
SOLOMONS ISLAND  2148   89 84   70/  4/  8   N/A
PINEY POINT      2142          330/  6/  6   N/A

$$




USA.gov is the U.S. government's official web portal to all federal, state and local government web resources and services.